Starlink 31723

operational
NORAD ID: 59553 Int'l Des: 2024-074 Owner: SPXS Country: US Constellation: starlink
LEOCIRCULAR

关于 Starlink 31723

正在加载描述...

实时位置

正在加载3D地球...

即将过境

高度历史

Altitude vs Time

uPlot chart will show altitude changes over time

两行轨道根数

1 59553U 24074V 25303.49905784 .00003565 00000-0 13899-3 0 9995
2 59553 42.9986 358.7482 0000731 291.2944 68.7830 15.27581152 86100
Epoch: Oct 30, 2025 • Age: 32 hours

当前状态

高度 483.7 km
速度 7.62 km/s
星下点 -4.46°S, 167.06°W
发射日期 Apr 18, 2024
运行时间 1.5 years
类型 internet

技术详情

分类 Payload
质量 730.00 kg
干质量 700.00 kg
总质量 730.00 kg
长度 0.30 m
直径 4.10 m
跨度 29.00 m
形状 Box + pan
制造商 SPXS
平台类型 Starlink V2M
阶段状态 In Orbit
所有者/国家 SPXS/US

大型星座

Loading constellations...